Wind_Speed
14 11 11 18 22 33 32 38 44 47 45 44 43 44 45 46 45 46 47 49 52 49
19 19 9 8 12 35 35 35 43 45 47 45 42 42 42 42 42 42 43 46 46 48
20 20 18 12 6 19 32 32 38 43 46 43 41 41 40 39 38 37 38 38 39 43
22 19 17 19 13 4 16 30 29 44 43 41 38 37 37 37 36 35 34 34 34 35
24 20 18 20 17 13 7 23 25 29 42 39 36 34 34 34 33 32 32 30 31 33
24 25 23 18 19 12 12 9 17 24 31 38 34 32 31 30 30 30 29 27 28 28
22 23 22 22 17 19 13 12 16 13 20 32 32 32 31 29 28 28 26 27 26 26
21 22 22 22 17 16 18 11 15 9 11 23 28 28 27 27 25 27 27 26 27 26
20 20 17 17 17 12 12 14 9 12 12 11 19 26 27 27 26 23 25 24 23 23
20 19 18 17 16 13 9 10 11 11 9 3 11 18 20 23 22 23 28 27 26 23
21 18 17 15 14 14 8 8 10 10 6 2 2 6 17 18 20 22 25 24 21 23
21 20 18 16 13 12 11 8 8 10 8 1 3 6 11 15 17 19 18 22 26 27
20 19 18 16 13 10 10 12 9 10 8 5 3 4 8 11 13 16 21 23 22 23
19 18 17 16 13 12 12 12 10 10 7 6 6 4 6 8 9 11 13 17 22 25
Wind_Direction
6 338 283 262 249 240 238 241 235 226 223 222 225 227 229 228 229 229 229 230 229 234
1 4 348 313 267 239 234 231 241 229 221 222 223 221 223 225 227 230 230 233 233 230
0 3 5 19 339 225 222 219 233 229 220 221 219 218 219 220 223 225 228 231 232 233
359 357 356 4 44 169 196 203 204 224 215 212 212 210 212 215 218 219 222 224 228 229
353 353 2 357 25 49 124 187 194 191 209 208 205 203 203 205 207 210 214 220 225 225
352 352 352 359 9 22 48 96 128 161 179 198 198 201 201 204 204 209 216 224 225 226
350 345 344 355 11 0 35 42 83 115 137 171 184 197 203 205 208 212 216 219 218 223
345 344 345 350 2 0 13 28 39 28 107 153 178 186 193 198 204 212 216 222 225 226
339 338 341 341 344 351 7 9 4 6 84 122 163 187 197 204 207 212 217 218 224 227
335 335 335 337 349 344 327 10 10 355 25 32 153 182 194 200 207 211 219 225 228 225
333 336 337 332 333 342 338 321 337 357 318 281 126 194 196 203 212 219 221 222 224 225
329 329 334 334 327 333 330 324 290 309 308 353 205 228 214 212 215 222 221 228 233 235
324 322 323 325 324 315 306 301 288 289 304 338 290 215 221 228 227 231 231 236 240 244
323 319 318 320 318 311 301 299 296 294 293 279 269 253 228 231 236 245 252 247 239 240
Height
1417 1416 1413 1411 1411 1411 1413 1416 1419 1425 1430 1435 1442 1447 1452 1458 1462 1467 1471 1476 1481 1485
1419 1415 1409 1406 1403 1402 1405 1407 1411 1417 1421 1427 1433 1439 1444 1450 1455 1460 1465 1470 1475 1480
1420 1413 1406 1403 1398 1396 1395 1398 1403 1409 1414 1420 1425 1431 1437 1442 1448 1453 1458 1463 1469 1474
1416 1412 1411 1404 1390 1390 1388 1390 1396 1402 1407 1412 1417 1423 1429 1435 1441 1446 1452 1457 1463 1468
1416 1411 1405 1401 1392 1386 1387 1385 1385 1389 1398 1404 1411 1416 1423 1429 1435 1441 1446 1452 1457 1462
1414 1408 1403 1401 1390 1387 1385 1384 1377 1377 1386 1395 1405 1411 1418 1424 1430 1436 1441 1447 1451 1457
1411 1410 1407 1396 1390 1389 1379 1383 1369 1378 1381 1383 1397 1406 1413 1419 1425 1431 1437 1441 1446 1452
1412 1406 1401 1395 1391 1394 1382 1378 1373 1385 1384 1386 1391 1400 1407 1413 1419 1426 1432 1437 1442 1446
1411 1407 1405 1405 1396 1392 1392 1387 1381 1385 1375 1382 1389 1396 1402 1407 1415 1421 1427 1433 1437 1441
1413 1408 1403 1400 1395 1391 1391 1387 1386 1388 1383 1390 1387 1393 1398 1404 1411 1417 1423 1427 1432 1435
1409 1406 1404 1400 1397 1394 1387 1389 1389 1389 1395 1391 1387 1392 1397 1402 1407 1412 1417 1421 1425 1428
1405 1402 1401 1399 1397 1392 1390 1389 1393 1394 1397 1392 1390 1393 1395 1399 1403 1408 1411 1415 1420 1422
1406 1401 1399 1399 1396 1394 1394 1396 1395 1394 1390 1385 1392 1393 1394 1396 1400 1404 1407 1411 1414 1416
1403 1399 1397 1395 1395 1393 1393 1391 1388 1391 1388 1390 1392 1391 1392 1394 1396 1401 1403 1403 1407 1410